Chester, MD

6:49 PM EST on February 07, 2016 (GMT -0500)
Stevensville

Weather History for KW29 - May, 2013

Change the Weather History Date:

Sunday, May 5, 2013

  Actual Average (KESN) Record (KESN)
Temperature  
Mean Temperature 54 °F -  
Max Temperature 62 °F 71 °F 86 °F (1955)
Min Temperature 46 °F 46 °F 35 °F (1966)
Degree Days  
Heating Degree Days 11    
Growing Degree Days 4 (Base 50)    
Moisture  
Dew Point 41 °F    
Average Humidity 66    
Maximum Humidity 82    
Minimum Humidity 48    
Precipitation  
Precipitation 0.00 in - - ()
Sea Level Pressure  
Sea Level Pressure 30.22 in    
Wind  
Wind Speed 7 mph (ENE)    
Max Wind Speed 10 mph    
Max Gust Speed 18 mph    
Visibility 10 miles    
Events      
Averages and records for this station are not official NWS values.
T = Trace of Precipitation, MM = Missing Value Source: NWS Daily Summary

Daily Weather History Graph

Daily Weather History Graph

Search for Another Location

Airport or City:

Trip Planner

Search our weather history database for the weather conditions in past years. The results will help you decide how hot, cold, wet, or windy it might be!

Date:

Astronomy

May. 05, 2013 Rise Set
Actual Time 6:02 AM EDT 8:02 PM EDT
Civil Twilight 5:33 AM EDT 8:31 PM EDT
Nautical Twilight 4:57 AM EDT 9:07 PM EDT
Astronomical Twilight 4:19 AM EDT 9:45 PM EDT
Moon 3:29 AM EDT (5/5) 4:01 PM EDT (5/5)
Length of Visible Light 14h 58m
Length of Day
13h 59m
Waning Crescent, 18% of the Moon is Illuminated
May 5
Waning Crescent
May 9
New
May 18
First Quarter
May 25
Full
May 31
Last Quarter

Hourly Weather History & Observations

Time (EDT) Temp. Windchill Dew Point Humidity Pressure Visibility Wind Dir Wind Speed Gust Speed Precip Events Conditions
12:11 AM 50.0 °F - 41.0 °F 71% 30.25 in 10.0 mi East 6.9 mph - N/A   Clear
12:31 AM 48.2 °F - 41.0 °F 76% 30.25 in 10.0 mi ESE 5.8 mph - N/A   Clear
12:51 AM 48.2 °F - 41.0 °F 76% 30.25 in 10.0 mi East 6.9 mph - N/A   Clear
1:11 AM 48.2 °F - 41.0 °F 76% 30.25 in 10.0 mi East 6.9 mph - N/A   Scattered Clouds
1:31 AM 48.2 °F - 41.0 °F 76% 30.25 in 10.0 mi East 8.1 mph 16.1 mph N/A   Mostly Cloudy
1:51 AM 46.4 °F 42.4 °F 41.0 °F 81% 30.24 in 10.0 mi East 8.1 mph - N/A   Mostly Cloudy
2:11 AM 46.4 °F 42.4 °F 41.0 °F 81% 30.24 in 10.0 mi ESE 8.1 mph - N/A   Mostly Cloudy
2:31 AM 46.4 °F 42.9 °F 41.0 °F 81% 30.24 in 10.0 mi East 6.9 mph - N/A   Mostly Cloudy
2:51 AM 46.4 °F 41.5 °F 41.0 °F 81% 30.23 in 10.0 mi East 10.4 mph 18.4 mph N/A   Overcast
3:11 AM 46.4 °F 41.9 °F 39.2 °F 76% 30.23 in 10.0 mi East 9.2 mph - N/A   Overcast
3:31 AM 46.4 °F 42.9 °F 39.2 °F 76% 30.23 in 10.0 mi ENE 6.9 mph - N/A   Overcast
3:51 AM 46.4 °F 43.5 °F 41.0 °F 81% 30.23 in 10.0 mi ENE 5.8 mph - N/A   Overcast
4:11 AM 46.4 °F 44.3 °F 39.2 °F 76% 30.23 in 10.0 mi NE 4.6 mph - N/A   Overcast
4:31 AM 46.4 °F 42.9 °F 41.0 °F 81% 30.23 in 10.0 mi NE 6.9 mph - N/A   Mostly Cloudy
4:51 AM 46.4 °F 43.5 °F 39.2 °F 76% 30.22 in 10.0 mi NE 5.8 mph - N/A   Mostly Cloudy
5:11 AM 46.4 °F 45.2 °F 39.2 °F 76% 30.23 in 10.0 mi NE 3.5 mph - N/A   Mostly Cloudy
5:31 AM 46.4 °F 42.9 °F 39.2 °F 76% 30.23 in 10.0 mi NE 6.9 mph - N/A   Mostly Cloudy
5:51 AM 46.4 °F 42.4 °F 37.4 °F 71% 30.23 in 10.0 mi ENE 8.1 mph 17.3 mph N/A   Mostly Cloudy
6:11 AM 46.4 °F 42.4 °F 37.4 °F 71% 30.23 in 10.0 mi NE 8.1 mph - N/A   Mostly Cloudy
6:31 AM 46.4 °F 41.5 °F 37.4 °F 71% 30.23 in 10.0 mi NE 10.4 mph 17.3 mph N/A   Mostly Cloudy
6:51 AM 46.4 °F 41.5 °F 37.4 °F 71% 30.24 in 10.0 mi NE 10.4 mph 17.3 mph N/A   Mostly Cloudy
7:11 AM 46.4 °F 41.9 °F 37.4 °F 71% 30.24 in 10.0 mi East 9.2 mph - N/A   Mostly Cloudy
7:32 AM 46.4 °F 41.5 °F 37.4 °F 71% 30.25 in 10.0 mi ENE 10.4 mph - N/A   Mostly Cloudy
7:52 AM 46.4 °F 42.4 °F 37.4 °F 71% 30.25 in 10.0 mi ENE 8.1 mph - N/A   Mostly Cloudy
8:12 AM 46.4 °F 43.5 °F 37.4 °F 71% 30.25 in 10.0 mi NE 5.8 mph - N/A   Mostly Cloudy
8:32 AM 46.4 °F 41.5 °F 37.4 °F 71% 30.25 in 10.0 mi East 10.4 mph 17.3 mph N/A   Mostly Cloudy
8:52 AM 48.2 °F - 37.4 °F 66% 30.26 in 10.0 mi East 10.4 mph - N/A   Mostly Cloudy
9:12 AM 48.2 °F - 37.4 °F 66% 30.26 in 10.0 mi ENE 6.9 mph - N/A   Mostly Cloudy
9:32 AM 50.0 °F - 37.4 °F 62% 30.26 in 10.0 mi East 9.2 mph - N/A   Mostly Cloudy
9:52 AM 50.0 °F - 37.4 °F 62% 30.26 in 10.0 mi East 4.6 mph - N/A   Mostly Cloudy
10:12 AM 50.0 °F - 37.4 °F 62% 30.26 in 10.0 mi ENE 9.2 mph 17.3 mph N/A   Mostly Cloudy
10:32 AM 51.8 °F - 37.4 °F 58% 30.26 in 10.0 mi ENE 9.2 mph - N/A   Overcast
10:52 AM 53.6 °F - 39.2 °F 58% 30.25 in 10.0 mi East 10.4 mph - N/A   Mostly Cloudy
11:12 AM 53.6 °F - 37.4 °F 54% 30.25 in 10.0 mi East 4.6 mph - N/A   Overcast
11:32 AM 53.6 °F - 37.4 °F 54% 30.25 in 10.0 mi ENE 5.8 mph - N/A   Mostly Cloudy
11:52 AM 53.6 °F - 39.2 °F 58% 30.26 in 10.0 mi NE 5.8 mph - N/A   Mostly Cloudy
12:12 PM 53.6 °F - 39.2 °F 58% 30.25 in 10.0 mi NE 6.9 mph - N/A   Scattered Clouds
12:32 PM 55.4 °F - 39.2 °F 54% 30.24 in 10.0 mi ENE 6.9 mph - N/A   Scattered Clouds
12:52 PM 55.4 °F - 41.0 °F 58% 30.24 in 10.0 mi ENE 9.2 mph - N/A   Scattered Clouds
1:12 PM 55.4 °F - 39.2 °F 54% 30.23 in 10.0 mi East 5.8 mph - N/A   Clear
1:32 PM 55.4 °F - 39.2 °F 54% 30.23 in 10.0 mi NE 5.8 mph - N/A   Scattered Clouds
2:12 PM 59.0 °F - 41.0 °F 51% 30.22 in 10.0 mi ENE 9.2 mph - N/A   Clear
2:32 PM 59.0 °F - 41.0 °F 51% 30.21 in 10.0 mi NE 4.6 mph - N/A   Clear
2:52 PM 59.0 °F - 41.0 °F 51% 30.21 in 10.0 mi ENE 9.2 mph - N/A   Clear
3:12 PM 60.8 °F - 41.0 °F 48% 30.20 in 10.0 mi East 8.1 mph - N/A   Clear
3:32 PM 60.8 °F - 41.0 °F 48% 30.20 in 10.0 mi ENE 4.6 mph - N/A   Clear
3:52 PM 60.8 °F - 41.0 °F 48% 30.19 in 10.0 mi East 10.4 mph - N/A   Clear
4:13 PM 60.8 °F - 41.0 °F 48% 30.19 in 10.0 mi NE 6.9 mph - N/A   Clear
4:33 PM 60.8 °F - 44.6 °F 55% 30.19 in 10.0 mi North 6.9 mph - N/A   Clear
4:53 PM 59.0 °F - 44.6 °F 59% 30.18 in 10.0 mi WSW 3.5 mph - N/A   Scattered Clouds
5:13 PM 62.6 °F - 42.8 °F 48% 30.18 in 10.0 mi East 4.6 mph - N/A   Scattered Clouds
5:33 PM 60.8 °F - 42.8 °F 52% 30.17 in 10.0 mi East 8.1 mph - N/A   Scattered Clouds
5:53 PM 60.8 °F - 42.8 °F 52% 30.17 in 10.0 mi East 10.4 mph - N/A   Clear
6:13 PM 60.8 °F - 42.8 °F 52% 30.18 in 10.0 mi East 5.8 mph - N/A   Clear
6:33 PM 60.8 °F - 42.8 °F 52% 30.18 in 10.0 mi East 8.1 mph - N/A   Clear
6:53 PM 60.8 °F - 42.8 °F 52% 30.18 in 10.0 mi ESE 9.2 mph - N/A   Clear
7:13 PM 59.0 °F - 44.6 °F 59% 30.18 in 10.0 mi ESE 8.1 mph - N/A   Clear
7:33 PM 59.0 °F - 44.6 °F 59% 30.19 in 10.0 mi SE 6.9 mph - N/A   Clear
7:53 PM 57.2 °F - 44.6 °F 63% 30.19 in 10.0 mi ESE 5.8 mph - N/A   Clear
8:13 PM 57.2 °F - 44.6 °F 63% 30.20 in 10.0 mi ESE 8.1 mph - N/A   Clear
8:33 PM 55.4 °F - 44.6 °F 67% 30.20 in 10.0 mi East 6.9 mph - N/A   Clear
8:53 PM 55.4 °F - 44.6 °F 67% 30.20 in 10.0 mi East 8.1 mph - N/A   Clear
9:13 PM 53.6 °F - 44.6 °F 72% 30.20 in 10.0 mi East 6.9 mph - N/A   Clear
9:33 PM 51.8 °F - 44.6 °F 76% 30.20 in 10.0 mi East 5.8 mph - N/A   Clear
9:53 PM 51.8 °F - 44.6 °F 76% 30.20 in 10.0 mi East 5.8 mph - N/A   Clear
10:33 PM 50.0 °F - 44.6 °F 82% 30.20 in 10.0 mi East 8.1 mph - N/A   Clear
10:53 PM 50.0 °F - 44.6 °F 82% 30.19 in 10.0 mi ENE 8.1 mph - N/A   Clear
11:13 PM 50.0 °F - 44.6 °F 82% 30.20 in 10.0 mi East 8.1 mph - N/A   Clear
11:33 PM 50.0 °F - 44.6 °F 82% 30.20 in 10.0 mi East 6.9 mph - N/A   Clear
11:53 PM 50.0 °F - 44.6 °F 82% 30.20 in 10.0 mi East 6.9 mph - N/A   Clear